When you browse on this site, cookies collect data to enhance your experience and personalize the content and advertising you see.
Visit our Privacy Policy to learn more. By continuing to use the site, you agree to this use of cookies and data.
  • In United Kingdom
  • List of Countries
  • For 7 days
  • Water Temperature
  • Weather Map
  • Weather Widgets
  • user-avatar
    Login

    Hourly Weather Athens

    Today, 25 August, Sunday

    Time Temperature Precipitation Wind Pressure Humidity
    00:00 +28°C° 0 mm 5 mps 751 mmHg 54%
    01:00 +27°C° 0 mm 5 mps 751 mmHg 57%
    02:00 +27°C° 0 mm 5 mps 751 mmHg 61%
    03:00 +26°C° 0 mm 5 mps 751 mmHg 65%
    04:00 +26°C° 0 mm 5 mps 751 mmHg 69%
    05:00 +26°C° 0 mm 5 mps 751 mmHg 73%
    06:00 +27°C° 0 mm 5 mps 751 mmHg 69%
    07:00 +27°C° 0 mm 6 mps 751 mmHg 66%
    08:00 +28°C° 0 mm 6 mps 751 mmHg 63%
    09:00 +30°C° 0 mm 6 mps 751 mmHg 55%
    10:00 +32°C° 0 mm 7 mps 752 mmHg 48%
    11:00 +34°C° 0 mm 7 mps 752 mmHg 40%
    12:00 +34°C° 0 mm 7 mps 752 mmHg 39%
    13:00 +35°C° 0 mm 8 mps 751 mmHg 37%
    14:00 +35°C° 0 mm 8 mps 751 mmHg 36%
    15:00 +35°C° 0 mm 8 mps 751 mmHg 37%
    16:00 +34°C° 0 mm 7 mps 751 mmHg 37%
    17:00 +34°C° 0 mm 7 mps 751 mmHg 38%
    18:00 +33°C° 0 mm 6 mps 751 mmHg 41%
    19:00 +32°C° 0 mm 5 mps 750 mmHg 44%
    20:00 +29°C° 0 mm 4 mps 750 mmHg 46%
    21:00 +29°C° 0 mm 4 mps 751 mmHg 46%
    22:00 +29°C° 0 mm 4 mps 751 mmHg 46%
    23:00 +28°C° 0 mm 4 mps 751 mmHg 46%

    Tomorrow, 26 August, Monday

    Time Temperature Precipitation Wind Pressure Humidity
    00:00 +28°C° 0 mm 4 mps 751 mmHg 46%
    01:00 +28°C° 0 mm 5 mps 750 mmHg 46%
    02:00 +28°C° 0 mm 5 mps 750 mmHg 46%
    03:00 +27°C° 0 mm 5 mps 750 mmHg 49%
    04:00 +27°C° 0 mm 5 mps 750 mmHg 52%
    05:00 +26°C° 0 mm 5 mps 750 mmHg 54%
    06:00 +27°C° 0 mm 5 mps 750 mmHg 56%
    07:00 +28°C° 0 mm 6 mps 750 mmHg 57%
    08:00 +29°C° 0 mm 6 mps 751 mmHg 58%
    09:00 +30°C° 0 mm 7 mps 751 mmHg 54%
    10:00 +32°C° 0 mm 8 mps 751 mmHg 50%
    11:00 +33°C° 0 mm 8 mps 751 mmHg 46%
    12:00 +34°C° 0 mm 8 mps 751 mmHg 46%
    13:00 +34°C° 0 mm 8 mps 751 mmHg 45%
    14:00 +34°C° 0 mm 7 mps 751 mmHg 44%
    15:00 +34°C° 0 mm 7 mps 751 mmHg 43%
    16:00 +34°C° 0 mm 7 mps 750 mmHg 42%
    17:00 +34°C° 0 mm 7 mps 750 mmHg 41%
    18:00 +33°C° 0 mm 6 mps 750 mmHg 44%
    19:00 +32°C° 0 mm 6 mps 750 mmHg 46%
    20:00 +30°C° 0 mm 5 mps 751 mmHg 49%
    21:00 +29°C° 0 mm 5 mps 751 mmHg 51%
    22:00 +29°C° 0 mm 5 mps 751 mmHg 53%
    23:00 +28°C° 0 mm 5 mps 751 mmHg 56%

    Day after tomorrow, 27 August, Tuesday

    Time Temperature Precipitation Wind Pressure Humidity
    00:00 +28°C° 0 mm 5 mps 751 mmHg 58%
    01:00 +27°C° 0 mm 5 mps 751 mmHg 61%
    02:00 +27°C° 0 mm 6 mps 751 mmHg 64%
    03:00 +26°C° 0 mm 6 mps 751 mmHg 67%
    04:00 +26°C° 0 mm 5 mps 751 mmHg 70%
    05:00 +25°C° 0 mm 5 mps 751 mmHg 74%
    06:00 +26°C° 0 mm 6 mps 751 mmHg 70%
    07:00 +27°C° 0 mm 6 mps 751 mmHg 66%
    08:00 +28°C° 0 mm 6 mps 751 mmHg 61%
    09:00 +29°C° 0 mm 7 mps 752 mmHg 54%
    10:00 +32°C° 0 mm 8 mps 752 mmHg 47%
    11:00 +33°C° 0 mm 8 mps 752 mmHg 40%
    12:00 +34°C° 0 mm 8 mps 752 mmHg 38%
    13:00 +34°C° 0 mm 8 mps 752 mmHg 36%
    14:00 +34°C° 0 mm 8 mps 752 mmHg 34%
    15:00 +34°C° 0 mm 8 mps 752 mmHg 35%
    16:00 +34°C° 0 mm 8 mps 751 mmHg 35%
    17:00 +34°C° 0 mm 8 mps 751 mmHg 35%
    18:00 +32°C° 0 mm 7 mps 751 mmHg 39%
    19:00 +30°C° 0 mm 5 mps 751 mmHg 42%
    20:00 +29°C° 0 mm 4 mps 751 mmHg 45%
    21:00 +28°C° 0 mm 5 mps 751 mmHg 47%
    22:00 +28°C° 0 mm 5 mps 751 mmHg 48%
    23:00 +27°C° 0 mm 5 mps 752 mmHg 50%

    28 August, Wednesday

    Time Temperature Precipitation Wind Pressure Humidity
    00:00 +27°C° 0 mm 5 mps 751 mmHg 51%
    01:00 +27°C° 0 mm 6 mps 751 mmHg 52%
    02:00 +27°C° 0 mm 6 mps 751 mmHg 54%
    03:00 +26°C° 0 mm 6 mps 751 mmHg 57%
    04:00 +26°C° 0 mm 6 mps 751 mmHg 61%
    05:00 +24°C° 0 mm 6 mps 751 mmHg 65%
    06:00 +26°C° 0 mm 7 mps 751 mmHg 61%
    07:00 +27°C° 0 mm 8 mps 751 mmHg 57%
    08:00 +28°C° 0 mm 9 mps 751 mmHg 53%
    09:00 +29°C° 0 mm 10 mps 751 mmHg 48%
    10:00 +31°C° 0 mm 10 mps 751 mmHg 44%
    11:00 +32°C° 0 mm 11 mps 752 mmHg 40%
    12:00 +32°C° 0 mm 10 mps 751 mmHg 39%
    13:00 +32°C° 0 mm 10 mps 751 mmHg 39%
    14:00 +33°C° 0 mm 10 mps 751 mmHg 38%
    15:00 +32°C° 0 mm 9 mps 751 mmHg 37%
    16:00 +32°C° 0 mm 9 mps 751 mmHg 37%
    17:00 +32°C° 0 mm 8 mps 750 mmHg 36%
    18:00 +30°C° 0 mm 7 mps 750 mmHg 39%
    19:00 +29°C° 0 mm 6 mps 750 mmHg 41%
    20:00 +27°C° 0 mm 5 mps 750 mmHg 43%
    21:00 +27°C° 0 mm 5 mps 750 mmHg 44%
    22:00 +26°C° 0 mm 4 mps 750 mmHg 44%
    23:00 +26°C° 0 mm 4 mps 751 mmHg 45%

    29 August, Thursday

    Time Temperature Precipitation Wind Pressure Humidity
    00:00 +26°C° 0 mm 4 mps 750 mmHg 47%
    01:00 +25°C° 0 mm 5 mps 750 mmHg 49%
    02:00 +25°C° 0 mm 5 mps 750 mmHg 51%
    03:00 +25°C° 0 mm 5 mps 750 mmHg 55%
    04:00 +23°C° 0 mm 5 mps 750 mmHg 59%
    05:00 +23°C° 0 mm 5 mps 750 mmHg 63%
    06:00 +24°C° 0 mm 6 mps 750 mmHg 60%
    07:00 +26°C° 0 mm 6 mps 750 mmHg 57%
    08:00 +27°C° 0 mm 6 mps 751 mmHg 54%
    09:00 +28°C° 0 mm 7 mps 751 mmHg 48%
    10:00 +30°C° 0 mm 7 mps 751 mmHg 41%
    11:00 +32°C° 0 mm 8 mps 751 mmHg 35%
    12:00 +32°C° 0 mm 8 mps 751 mmHg 33%
    13:00 +33°C° 0 mm 8 mps 751 mmHg 31%
    14:00 +33°C° 0 mm 8 mps 751 mmHg 29%
    15:00 +33°C° 0 mm 7 mps 750 mmHg 28%
    16:00 +33°C° 0 mm 7 mps 750 mmHg 28%
    17:00 +32°C° 0 mm 6 mps 750 mmHg 27%
    18:00 +30°C° 0 mm 5 mps 750 mmHg 30%
    19:00 +28°C° 0 mm 4 mps 750 mmHg 33%
    20:00 +27°C° 0 mm 3 mps 750 mmHg 37%
    21:00 +26°C° 0 mm 3 mps 750 mmHg 38%
    22:00 +26°C° 0 mm 3 mps 750 mmHg 38%
    23:00 +25°C° 0 mm 3 mps 751 mmHg 39%

    30 August, Friday

    Time Temperature Precipitation Wind Pressure Humidity
    00:00 +25°C° 0 mm 3 mps 751 mmHg 40%
    01:00 +25°C° 0 mm 3 mps 751 mmHg 41%
    02:00 +25°C° 0 mm 4 mps 751 mmHg 41%
    03:00 +23°C° 0 mm 4 mps 751 mmHg 45%
    04:00 +23°C° 0 mm 4 mps 751 mmHg 50%
    05:00 +23°C° 0 mm 4 mps 751 mmHg 54%
    06:00 +25°C° 0 mm 5 mps 751 mmHg 53%
    07:00 +26°C° 0 mm 6 mps 751 mmHg 53%
    08:00 +27°C° 0 mm 6 mps 751 mmHg 53%
    09:00 +28°C° 0 mm 7 mps 751 mmHg 49%
    10:00 +29°C° 0 mm 8 mps 752 mmHg 45%
    11:00 +31°C° 0 mm 9 mps 752 mmHg 41%
    12:00 +31°C° 0 mm 9 mps 752 mmHg 40%
    13:00 +32°C° 0 mm 9 mps 752 mmHg 39%
    14:00 +32°C° 0 mm 9 mps 752 mmHg 38%
    15:00 +31°C° 0 mm 9 mps 751 mmHg 38%
    16:00 +31°C° 0 mm 8 mps 751 mmHg 38%
    17:00 +31°C° 0 mm 8 mps 751 mmHg 38%
    18:00 +28°C° 0 mm 7 mps 751 mmHg 42%
    19:00 +27°C° 0 mm 5 mps 751 mmHg 46%
    20:00 +26°C° 0 mm 4 mps 751 mmHg 50%
    21:00 +25°C° 0 mm 4 mps 752 mmHg 52%
    22:00 +25°C° 0 mm 4 mps 752 mmHg 54%
    23:00 +23°C° 0 mm 4 mps 752 mmHg 56%
    Show more